Weather in Mihajlovka

Russia / Republic of Crimea     45°06′39″N   33°36′36″E
temp.,
°C
wind,
m/s
gust,
m/s
humid.,
%
clouds,
%
prec.,
mm/h
press.,
hPa
HPBL,
m
17 june, thu
thu1700:00+19nnw6875100 0.0 1010303
03:00+19nnw61075100 0.0 1011414
06:00+19nw71080100 0.2 1009551
09:00+18nw71184100 0.7 1009723
12:00+18wsw101390100 5.9 1010805
15:00+18w141689100 9.6 1009883
18:00+18sw141692100 2.9 1009925
21:00+18ssw141693100 7.0 1009760
18 june, fri
fri1800:00+18s141794100 6.6 1009856
03:00+18sse141793100 10.4 1009961
06:00+18se101591100 6.6 1009971
09:00+19sse81193100 14.5 1011694
12:00+19sse111489100 2.4 1013908
15:00+19sse61088100 4.4 1014663
18:00+20ese5886100 0.6 1015354
21:00+19e4584100 1.5 1016187
19 june, sat
sat1900:00+19ene4479100 0.5 1016139
03:00+19ene3375100 0.5 1015104
06:00+19e447311 0.0 1014122
09:00+22ene57750 0.0 1014168
12:00+24ene56660 0.0 1013203
15:00+25ne68639 0.0 1012239
18:00+25ene7970100 0.0 1011203
21:00+22ne69855 0.0 1011139
20 june, sun
sun2000:00+20ne59933 0.5 1010189
03:00+20ne59920 0.8 1009188
06:00+20ne58932 0.6 1009221
09:00+22e12825 0.6 100984
12:00+21ssw458579 0.0 1009174
15:00+21sw558949 0.0 1010206
18:00+22ssw3387100 0.0 1010118
21:00+21ssw33893 0.1 101036
21 june, mon
mon2100:00+21ssw339018 0.1 101038
03:00+20ssw22916 0.1 101022
06:00+20ssw11911 0.0 101012
09:00+21ene018726 0.0 101073
12:00+22wnw3380100 0.0 101098
15:00+23w44795 0.0 1010103
18:00+22w57834 0.4 1010122
21:00+21ssw449050 4.0 101091